Location: *
(33.8649°S, 62.1526°E)
Time: 13:14:27
(UTC+00:00)

Cosmos 2369 Rocket - Pass Details

Date: 17 January 2021
Orbit: 830 x 851 km, 71.0° (Epoch: 02 March)

Event Time Altitude Azimuth Distance (km) Brightness Sun altitude
Rises 16:56:39 0° 207° (SSW) 3,441 6.7 -20.0°
Reaches altitude 10° 16:59:10 10° 210° (SSW) 2,501 5.8 -20.3°
Maximum altitude 17:04:45 55° 286° (WNW) 1,024 2.7 -21.2°
Enters shadow 17:07:40 28° 352° (N) 1,567 3.3 -21.6°
